Zurück zum Katalog

STARLINK-35456

AktivKommunikationVLEO
NORAD 65867·PAYLOAD·🇺🇸 United States

Gestartet Oct 3, 2025 von Vandenberg Space Force Base

Loading…

Nächste Überflüge (nächste 24 Stunden)

TLE

AktuellSource: CelesTrak SupGP

Epoche: Sep 14, 2026, 22:46 UTC

1 65867C 25223P   26257.94909722 -.00057063  00000+0 -16859-2 0  2570
2 65867  53.1575 133.3302 0001365  69.0187  45.9312 15.34419136    13

Verfolge STARLINK-35456 in Echtzeit mit AllMySat

Download on the App Store